Tracking 20628 objects as of 6-Apr-2020
HD Live streaming from Space Station
objects crossing your sky now

COSMOS 2408

Track COSMOS 2408 now!
10-day predictions
COSMOS 2408 is classified as:


NORAD ID: 28419
Int'l Code: 2004-037A
Perigee: 1,478.1 km
Apogee: 1,502.0 km
Inclination: 82.5 °
Period: 115.6 minutes
Semi major axis: 7861 km
RCS: 0.961 m2 (medium)
Launch date: September 23, 2004
Source: Commonwealth of Independent States (former USSR) (CIS)
Launch site: PLESETSK MISSILE AND SPACE COMPLEX (PKMTR)

Store-dump communications for Russian government and military.
aabbcc
Your satellite tracking list
Your tracking list is empty




NASA's NSSDC Master Catalog

Two Line Element Set (TLE):
1 28419U 04037A   20096.77971267 +.00000045 +00000-0 +24376-3 0  9995
2 28419 082.4837 303.6641 0015200 188.5614 171.5210 12.45620544706274
Source of the keplerian elements: AFSPC